Weather History for Redwood Falls, MN

Change the Weather History Date:

Sunday, October 6, 2013

  Actual Average Record
Temperature  
Mean Temperature 48 °F -  
Max Temperature 52 °F 61 °F 90 °F (1993)
Min Temperature 44 °F 39 °F 21 °F (1935)
Degree Days  
Heating Degree Days 17    
Moisture  
Dew Point 46 °F    
Average Humidity 92    
Maximum Humidity 100    
Minimum Humidity 74    
Precipitation  
Precipitation 0.21 in - - ()
Sea Level Pressure  
Sea Level Pressure 29.78 in    
Wind  
Wind Speed 7 mph (NW)    
Max Wind Speed 15 mph    
Max Gust Speed 23 mph    
Visibility 7 miles    
Events Rain    
Averages and records for this station are not official NWS values.
T = Trace of Precipitation, MM = Missing Value Source: NWS Daily Summary

Daily Weather History Graph

Daily Weather History Graph

Search for Another Location

Airport:

Trip Planner

Search our weather history database for the weather conditions in past years. The results will help you decide how hot, cold, wet, or windy it might be!

Date:

Astronomy

Oct. 06, 2013 Rise Set
Actual Time 7:24 AM CDT 6:51 PM CDT
Civil Twilight 6:55 AM CDT 7:20 PM CDT
Nautical Twilight 6:21 AM CDT 7:54 PM CDT
Astronomical Twilight 5:47 AM CDT 8:27 PM CDT
Moon 9:15 AM CDT (10/6) 7:45 PM CDT (10/6)
Length of Visible Light 12h 24m
Length of Day
11h 26m
Waxing Crescent, 3% of the Moon is Illuminated
Oct 6
Waxing Crescent
Oct 11
First Quarter
Oct 18
Full
Oct 26
Last Quarter
Nov 3
New

Hourly Weather History & Observations

Time (CDT) Temp. Windchill Dew Point Humidity Pressure Visibility Wind Dir Wind Speed Gust Speed Precip Events Conditions
12:53 AM 46.0 °F 43.9 °F 41.0 °F 83% 29.75 in 10.0 mi WNW 4.6 mph - N/A   Overcast
1:53 AM 45.0 °F - 42.1 °F 90% 29.76 in 10.0 mi Calm Calm - N/A   Mostly Cloudy
2:53 AM 45.0 °F 43.5 °F 42.1 °F 90% 29.75 in 10.0 mi West 3.5 mph - N/A   Scattered Clouds
3:53 AM 44.1 °F 40.1 °F 43.0 °F 96% 29.74 in 10.0 mi WNW 6.9 mph - N/A   Scattered Clouds
4:31 AM 44.6 °F 41.4 °F 42.8 °F 93% 29.72 in 10.0 mi WNW 5.8 mph - N/A   Scattered Clouds
4:40 AM 44.6 °F 41.4 °F 42.8 °F 93% 29.72 in 10.0 mi WNW 5.8 mph - N/A   Mostly Cloudy
4:53 AM 46.0 °F 43.9 °F 44.1 °F 93% 29.74 in 10.0 mi WNW 4.6 mph - N/A   Overcast
5:53 AM 46.9 °F - 45.0 °F 93% 29.73 in 10.0 mi WNW 3.5 mph - N/A   Overcast
6:53 AM 46.9 °F - 46.0 °F 97% 29.73 in 10.0 mi West 5.8 mph - 0.01 in Rain Light Rain
7:22 AM 48.2 °F - 46.4 °F 93% 29.72 in 3.0 mi WNW 5.8 mph - 0.01 in Rain Light Rain
7:40 AM 48.2 °F - 46.4 °F 93% 29.72 in 2.5 mi NW 5.8 mph - 0.03 in Rain Light Rain
7:53 AM 48.0 °F - 48.0 °F 100% 29.73 in 3.0 mi NNW 5.8 mph - 0.03 in Rain Light Rain
8:01 AM 48.2 °F - 48.2 °F 100% 29.72 in 2.0 mi NNW 5.8 mph - 0.01 in Rain Light Rain
8:09 AM 48.2 °F - 48.2 °F 100% 29.72 in 1.8 mi NNW 6.9 mph - 0.01 in Rain Light Rain
8:53 AM 48.9 °F - 48.0 °F 97% 29.75 in 4.0 mi NNW 9.2 mph - 0.04 in Rain Light Rain
9:05 AM 48.2 °F - 48.2 °F 100% 29.74 in 4.0 mi NNW 10.4 mph - 0.00 in   Overcast
9:19 AM 48.2 °F - 48.2 °F 100% 29.74 in 2.0 mi North 10.4 mph - 0.00 in Rain Light Rain
9:26 AM 48.2 °F - 48.2 °F 100% 29.74 in 1.8 mi NNW 9.2 mph 18.4 mph 0.01 in Rain Light Rain
9:30 AM 48.2 °F - 48.2 °F 100% 29.74 in 2.0 mi NNW 8.1 mph 17.3 mph 0.01 in Rain Light Rain
9:53 AM 50.0 °F - 48.9 °F 96% 29.75 in 10.0 mi North 12.7 mph 23.0 mph 0.01 in   Overcast
10:17 AM 50.0 °F - 48.2 °F 94% 29.74 in 10.0 mi NNW 13.8 mph 19.6 mph N/A   Overcast
10:53 AM 50.0 °F - 46.9 °F 89% 29.77 in 10.0 mi NNW 13.8 mph 23.0 mph N/A   Overcast
11:53 AM 50.0 °F - 46.0 °F 86% 29.78 in 10.0 mi NNW 10.4 mph - N/A   Overcast
12:40 PM 50.0 °F - 46.4 °F 87% 29.77 in 10.0 mi NNW 10.4 mph - N/A   Overcast
12:53 PM 48.9 °F - 46.0 °F 90% 29.79 in 10.0 mi NNW 10.4 mph 21.9 mph N/A   Overcast
1:07 PM 48.2 °F - 46.4 °F 93% 29.77 in 10.0 mi NW 11.5 mph - 0.00 in Rain Light Rain
1:12 PM 48.2 °F - 46.4 °F 93% 29.77 in 7.0 mi NW 13.8 mph 19.6 mph 0.00 in Rain Light Rain
1:53 PM 48.9 °F - 46.9 °F 93% 29.79 in 4.0 mi NNW 13.8 mph 23.0 mph 0.01 in Rain Light Rain
2:01 PM 48.2 °F - 46.4 °F 93% 29.78 in 2.5 mi NNW 11.5 mph 20.7 mph 0.00 in Rain Light Rain
2:09 PM 48.2 °F - 46.4 °F 93% 29.78 in 10.0 mi NNW 12.7 mph 21.9 mph 0.00 in Rain Light Rain
2:37 PM 48.2 °F - 46.4 °F 93% 29.78 in 9.0 mi North 11.5 mph 20.7 mph 0.01 in Rain Light Rain
2:53 PM 48.0 °F - 46.0 °F 93% 29.81 in 4.0 mi NNW 15.0 mph 21.9 mph 0.02 in Rain Light Rain
3:53 PM 48.0 °F - 46.9 °F 96% 29.82 in 2.5 mi NNW 11.5 mph - 0.06 in Rain Light Rain
4:00 PM 48.2 °F - 46.4 °F 93% 29.80 in 2.0 mi NNW 10.4 mph - 0.01 in Rain Light Rain
4:25 PM 48.2 °F - 46.4 °F 93% 29.81 in 3.0 mi NNW 10.4 mph 19.6 mph 0.03 in Rain Light Rain
4:53 PM 48.0 °F - 46.9 °F 96% 29.83 in 10.0 mi NW 6.9 mph - 0.03 in   Overcast
5:17 PM 50.0 °F - 48.2 °F 94% 29.81 in 10.0 mi NNW 8.1 mph - N/A   Overcast
5:24 PM 50.0 °F - 48.2 °F 94% 29.82 in 10.0 mi NW 9.2 mph - N/A   Mostly Cloudy
5:53 PM 52.0 °F - 48.0 °F 86% 29.84 in 10.0 mi NNW 10.4 mph - N/A   Clear
6:53 PM 51.1 °F - 46.9 °F 86% 29.87 in 10.0 mi NW 12.7 mph - N/A   Clear
7:53 PM 50.0 °F - 42.1 °F 74% 29.88 in 10.0 mi NW 9.2 mph - N/A   Clear
8:53 PM 48.0 °F - 39.9 °F 74% 29.89 in 10.0 mi NW 10.4 mph - N/A   Clear
9:53 PM 46.9 °F - 39.0 °F 74% 29.91 in 10.0 mi NW 10.4 mph - N/A   Clear
10:53 PM 45.0 °F 40.1 °F 39.0 °F 80% 29.91 in 10.0 mi WNW 9.2 mph - N/A   Clear
11:53 PM 46.0 °F 41.4 °F 39.0 °F 76% 29.92 in 10.0 mi West 9.2 mph - N/A   Clear